Miscellaneous Local Product
Issued by NWS Hastings, NE

Home | Current Version | Previous Version | Text Only | Print | Product List | Glossary Off
Versions: 1 2 3 4 5 6 7 8 9 10 11 12 13 14 15 16 17 18 19 20 21 22 23 24 25 26 27 28 29 30 31 32 33 34 35 36 37 38 39 40 41 42 43 44 45 46 47 48 49 50

000
AXUS43 KGID 180102
MISGRI

GID CWA HOURLY WEATHER ROUNDUP
NATIONAL WEATHER SERVICE HASTINGS NE
700 PM CST SAT FEB 17 2018

NOTE: "FAIR" INDICATES FEW OR NO CLOUDS BELOW 12,000 FEET WITH NO
SIGNIFICANT WEATHER AND/OR OBSTRUCTIONS TO VISIBILITY.

...SOUTH CENTRAL NEBRASKA...

CITY           SKY/WX    TMP DP  RH WIND       PRES   REMARKS
GRAND ISLAND   CLEAR     36  25  64 SE7       30.09S WCI  30
KEARNEY        CLEAR     33  27  78 E9        30.07F WCI  25
HASTINGS       CLEAR     35  24  64 E6        30.08F WCI  30
ORD            PTCLDY    34  24  67 E7        30.03F WCI  28
YORK           CLEAR     39  23  52 CALM      30.11S
AURORA         CLEAR     34  23  64 SE5       30.10S WCI  30
LEXINGTON      PTCLDY    37  28  69 SE8       30.04S WCI  31
HOLDREGE       CLEAR     30  22  70 SE6       30.06R WCI  24
HEBRON         CLEAR     35  21  57 CALM      30.12R

...NEBRASKA PANHANDLE...

CITY           SKY/WX    TMP DP  RH WIND       PRES   REMARKS
CHADRON        MOCLDY    35  25  66 SE14      29.77F WCI  26
ALLIANCE       MOCLDY    34  19  54 S10       29.82F WCI  26
SCOTTSBLUFF    MOCLDY    42  16  34 S6        29.83S
SIDNEY         PTCLDY    39  14  36 S10       29.89F WCI  32

...WESTERN AND NORTH CENTRAL NEBRASKA...

CITY           SKY/WX    TMP DP  RH WIND       PRES   REMARKS
VALENTINE      MOCLDY    33  23  66 SE8       29.93F WCI  26
AINSWORTH      PTCLDY    31  26  80 SE8       29.96F WCI  24
ONEILL         PTCLDY    31  25  77 SE5       30.04F WCI  26
BROKEN BOW     PTCLDY    35  23  61 SE8       30.02S WCI  29
IMPERIAL       PTCLDY    37  23  56 SE12      29.98S WCI  29
NORTH PLATTE   PTCLDY    37  23  56 SE13      29.98F WCI  29
MCCOOK         CLEAR     40  20  44 S8        30.03S WCI  34

...EASTERN NEBRASKA...

CITY           SKY/WX    TMP DP  RH WIND       PRES   REMARKS
NORFOLK        CLEAR     33  26  75 SE3       30.08R
SO SIOUX CITY  PTCLDY    29  24  82 NW5       30.13R WCI  24
TEKAMAH        CLEAR     31  27  85 N6        30.14R WCI  25
COLUMBUS       CLEAR     32  27  81 E5        30.12R WCI  27
ALBION         CLEAR     32  26  78 E7        30.08S WCI  26
OMAHA EPPLEY   CLEAR     34  26  72 N3        30.15R
OFFUTT AFB     CLEAR     36  26  65 NE5       30.14R WCI  32
MILLARD        CLEAR     38  28  65 CALM      30.15R
LINCOLN        CLEAR     32  23  69 NE5       30.15R WCI  27
NEBRASKA CITY  CLEAR     37  23  57 N8        30.14S WCI  31
BEATRICE       CLEAR     41  25  52 NE3       30.13R
FALLS CITY     CLEAR     41  20  43 N5        30.15R

...NORTHERN KANSAS...

CITY           SKY/WX    TMP DP  RH WIND       PRES   REMARKS
GOODLAND       PTCLDY    36  18  48 S14       30.02R WCI  27
HILL CITY      CLEAR     43  12  28 E3        30.08F
NORTON         CLEAR     41  10  28 CALM      30.05F
PHILLIPSBURG   CLEAR     39  16  38 CALM      30.09S
SMITH CENTER   CLEAR     41  14  33 E6        30.11R
BELOIT         CLEAR     43  16  33 CALM      30.12R
RUSSELL        CLEAR     48  10  21 NE5       30.09F
CONCORDIA      CLEAR     44  16  32 NW7       30.12R
SALINA         CLEAR     44  13  28 CALM      30.14R
TOPEKA         CLEAR     41  18  39 CALM      30.15R



USA.gov is the U.S. government's official web portal to all federal, state and local government web resources and services.